Terug naar catalogus

PEGASUS DEB

ActiefPO
NORAD 24378·DEBRIS·🇺🇸 United States

Gelanceerd May 19, 1994 vanaf Vandenberg Space Force Base

Loading…

Volgende Passages (komende 24 uur)

TLE

VersSource: Space-Track

Epoch: Sep 13, 2026, 19:06 UTC

1 24378U 94029QF  26256.79613734  .00000574  00000-0  98640-4 0  9996
2 24378  82.0322 164.5546 0158171 283.6525  74.7105 14.59280113711588

Volg PEGASUS DEB in realtime met AllMySat

Download on the App Store